KLM33D YSSY-RJTT

Flight info

Callsign KLM33D
Flight time N/A
Altitude 38000
Route RIC6/34L RIC H530 LASUD Q238 DUPUG/N0495F370 Q141 ESKUT/N0492F380 Q141 OVRON B462 PY B586 PIKOK/N0487F400 DCT 05N145E 06N145E 10N144E 15N143E/N0485F410 20N143E/N0488F400 25N142E UKATA B586 CADDY/N0484F410 T871 TOPIT Y875 AROSA
Aircraft A359/H-SDE2E3GHIJ3J4J5LM1ORWXY/LB1D1

Departure

Time 2026-05-04 09:42
Airport Sydney Kingsford Smith International Airport (YSSY)

Arrival

Time N/A
Airport Tokyo Haneda International Airport (RJTT)
Time Latitude Longitude Altitude Speed Heading
2026-05-04 08:33 -33.93923 151.16988 27 ft 0 kts 253°
2026-05-04 09:14 -33.93909 151.17041 27 ft 4 kts 249°
2026-05-04 09:14 -33.93897 151.17069 25 ft 4 kts 224°
2026-05-04 09:14 -33.93882 151.17079 26 ft 1 kts 167°
2026-05-04 09:25 -33.93919 151.17088 27 ft 10 kts 167°
2026-05-04 09:25 -33.93971 151.17132 31 ft 9 kts 108°
2026-05-04 09:26 -33.93987 151.17204 30 ft 8 kts 128°
2026-05-04 09:26 -33.94028 151.17234 27 ft 7 kts 160°
2026-05-04 09:26 -33.94041 151.17239 27 ft 0 kts 164°
2026-05-04 09:26 -33.94042 151.17239 27 ft 0 kts 164°
2026-05-04 09:27 -33.94086 151.17251 28 ft 14 kts 167°
2026-05-04 09:27 -33.94227 151.17289 29 ft 23 kts 167°
2026-05-04 09:27 -33.94380 151.17332 32 ft 22 kts 168°
2026-05-04 09:27 -33.94532 151.17368 32 ft 23 kts 167°
2026-05-04 09:28 -33.94687 151.17410 32 ft 23 kts 167°
2026-05-04 09:28 -33.94854 151.17459 27 ft 26 kts 167°
2026-05-04 09:28 -33.95036 151.17503 27 ft 27 kts 168°
2026-05-04 09:28 -33.95222 151.17549 26 ft 28 kts 168°
2026-05-04 09:29 -33.95412 151.17598 29 ft 25 kts 168°
2026-05-04 09:29 -33.95565 151.17635 28 ft 22 kts 168°
2026-05-04 09:29 -33.95679 151.17666 30 ft 12 kts 167°
2026-05-04 09:29 -33.95736 151.17682 31 ft 0 kts 167°
2026-05-04 09:34 -33.95839 151.17713 29 ft 0 kts 153°
2026-05-04 09:37 -33.95884 151.17767 28 ft 0 kts 114°
2026-05-04 09:39 -33.95890 151.17795 28 ft 10 kts 99°
2026-05-04 09:39 -33.95885 151.17891 28 ft 9 kts 65°
2026-05-04 09:40 -33.95839 151.17911 28 ft 7 kts 346°
2026-05-04 09:40 -33.95836 151.17911 28 ft 0 kts 346°
2026-05-04 09:42 -33.90089 151.16774 1570 ft 192 kts 15°
2026-05-04 09:43 -33.88711 151.16951 1805 ft 210 kts 347°
2026-05-04 09:43 -33.87444 151.15952 2023 ft 235 kts 308°
2026-05-04 09:43 -33.86742 151.14143 2522 ft 246 kts 295°
2026-05-04 09:43 -33.86027 151.12285 3278 ft 243 kts 302°
2026-05-04 09:44 -33.85143 151.10563 3993 ft 242 kts 308°
2026-05-04 09:44 -33.84130 151.08930 4603 ft 245 kts 311°
2026-05-04 09:44 -33.83038 151.07350 4931 ft 246 kts 313°
2026-05-04 09:46 -33.74864 150.96780 8181 ft 251 kts 314°
2026-05-04 09:46 -33.73666 150.95262 8878 ft 255 kts 314°
2026-05-04 09:46 -33.72439 150.93711 9587 ft 258 kts 314°
2026-05-04 09:47 -33.71192 150.92136 10226 ft 263 kts 314°
2026-05-04 09:47 -33.69892 150.90496 10516 ft 280 kts 314°
2026-05-04 09:49 -33.58802 150.76542 13235 ft 356 kts 315°
2026-05-04 09:49 -33.57042 150.74443 13805 ft 359 kts 316°
2026-05-04 09:49 -33.55257 150.72385 14299 ft 362 kts 316°
2026-05-04 09:51 -33.44156 150.59655 17528 ft 376 kts 316°
2026-05-04 09:51 -33.42270 150.57472 18051 ft 380 kts 316°
2026-05-04 09:51 -33.40362 150.55264 18589 ft 381 kts 316°
2026-05-04 09:51 -33.38443 150.53059 19084 ft 382 kts 316°
2026-05-04 09:52 -33.36527 150.50852 19616 ft 383 kts 315°
2026-05-04 09:52 -33.34601 150.48630 20112 ft 385 kts 315°
2026-05-04 09:52 -33.32667 150.46402 20615 ft 387 kts 315°
2026-05-04 09:52 -33.30719 150.44159 21168 ft 387 kts 315°
2026-05-04 09:53 -33.28778 150.41927 21735 ft 388 kts 315°
2026-05-04 09:53 -33.26827 150.39680 22189 ft 391 kts 315°
2026-05-04 09:53 -33.24868 150.37412 22667 ft 393 kts 315°
2026-05-04 09:53 -33.22905 150.35140 23269 ft 394 kts 315°
2026-05-04 09:54 -33.20922 150.32864 23761 ft 396 kts 315°
2026-05-04 09:54 -33.18947 150.30608 24197 ft 399 kts 316°
2026-05-04 09:54 -33.16905 150.28295 24680 ft 400 kts 315°
2026-05-04 09:54 -33.14906 150.26025 25080 ft 402 kts 315°
2026-05-04 09:55 -33.12882 150.23713 25518 ft 403 kts 315°
2026-05-04 09:55 -33.10852 150.21393 25940 ft 405 kts 315°
2026-05-04 09:55 -33.08816 150.19068 26396 ft 406 kts 315°
2026-05-04 09:55 -33.06774 150.16734 26870 ft 406 kts 315°
2026-05-04 09:56 -33.04736 150.14406 27372 ft 406 kts 315°
2026-05-04 09:56 -33.02695 150.12078 27814 ft 407 kts 315°
2026-05-04 09:56 -33.00640 150.09735 28064 ft 409 kts 315°
2026-05-04 09:57 -32.96520 150.05043 28087 ft 409 kts 315°
2026-05-04 09:57 -32.92394 150.00353 28089 ft 410 kts 315°
2026-05-04 09:58 -32.88273 149.95657 28087 ft 410 kts 315°
2026-05-04 09:58 -32.84134 149.90973 28100 ft 411 kts 315°
2026-05-04 10:00 -32.67629 149.72359 28090 ft 408 kts 315°
2026-05-04 10:02 -32.53566 149.55698 28815 ft 408 kts 309°
2026-05-04 10:04 -32.40984 149.37513 31591 ft 405 kts 308°
2026-05-04 10:04 -32.39204 149.34944 32005 ft 403 kts 307°
2026-05-04 10:04 -32.37427 149.32379 32381 ft 401 kts 307°
2026-05-04 10:04 -32.35661 149.29831 32731 ft 400 kts 307°
2026-05-04 10:05 -32.33899 149.27293 33096 ft 398 kts 307°
2026-05-04 10:05 -32.32147 149.24763 33460 ft 396 kts 307°
2026-05-04 10:05 -32.30421 149.22277 33823 ft 395 kts 306°
2026-05-04 10:05 -32.28682 149.19777 34161 ft 393 kts 306°
2026-05-04 10:06 -32.26945 149.17283 34431 ft 392 kts 306°
2026-05-04 10:06 -32.25211 149.14796 34684 ft 391 kts 306°
2026-05-04 10:06 -32.23483 149.12319 34927 ft 390 kts 306°
2026-05-04 10:08 -32.13170 148.97566 36100 ft 387 kts 306°
2026-05-04 10:08 -32.11412 148.95159 36110 ft 387 kts 309°
2026-05-04 10:08 -32.07280 148.90995 36113 ft 396 kts 320°
2026-05-04 10:09 -32.02291 148.88110 36114 ft 411 kts 332°
2026-05-04 10:09 -31.96559 148.86822 36111 ft 429 kts 343°
2026-05-04 10:10 -31.90569 148.86359 36110 ft 432 kts 346°
2026-05-04 10:10 -31.84544 148.86003 36113 ft 432 kts 346°
2026-05-04 10:11 -31.78540 148.85614 36110 ft 432 kts 345°
2026-05-04 10:11 -31.72539 148.85192 36113 ft 432 kts 345°
2026-05-04 10:12 -31.66542 148.84759 36112 ft 432 kts 345°
2026-05-04 10:12 -31.60584 148.84329 36110 ft 432 kts 345°
2026-05-04 10:13 -31.54590 148.83899 36115 ft 431 kts 345°
2026-05-04 10:13 -31.48594 148.83469 36113 ft 432 kts 345°
2026-05-04 10:14 -31.42587 148.83039 36114 ft 431 kts 345°
2026-05-04 10:16 -31.18635 148.81332 36112 ft 432 kts 345°
2026-05-04 10:16 -31.12637 148.80906 36100 ft 432 kts 345°
2026-05-04 10:17 -31.06639 148.80481 36111 ft 431 kts 345°
2026-05-04 10:19 -30.82674 148.78785 36111 ft 432 kts 345°
2026-05-04 10:19 -30.76667 148.78362 36106 ft 432 kts 345°
2026-05-04 10:20 -30.71681 148.78015 36102 ft 432 kts 345°
2026-05-04 10:20 -30.64698 148.77525 36097 ft 432 kts 345°
2026-05-04 10:21 -30.59665 148.77168 36102 ft 432 kts 345°
2026-05-04 10:21 -30.53662 148.76745 36102 ft 432 kts 345°
2026-05-04 10:22 -30.44677 148.76115 36103 ft 432 kts 345°
2026-05-04 10:23 -30.38665 148.75695 36098 ft 433 kts 345°
2026-05-04 10:25 -30.14728 148.74026 36089 ft 431 kts 345°
2026-05-04 10:25 -30.08732 148.73609 36097 ft 431 kts 345°
2026-05-04 10:26 -30.02738 148.73193 36096 ft 431 kts 345°
2026-05-04 10:26 -29.96746 148.72778 36094 ft 431 kts 345°
2026-05-04 10:27 -29.90797 148.72366 36072 ft 431 kts 345°
2026-05-04 10:27 -29.84790 148.71949 36090 ft 432 kts 345°
2026-05-04 10:28 -29.78782 148.71534 36102 ft 432 kts 345°
2026-05-04 10:28 -29.72779 148.71121 36092 ft 432 kts 345°
2026-05-04 10:29 -29.66759 148.70706 36097 ft 432 kts 345°
2026-05-04 10:29 -29.60764 148.70295 36090 ft 432 kts 345°
2026-05-04 10:30 -29.54760 148.69882 36090 ft 432 kts 345°
2026-05-04 10:30 -29.48804 148.69473 36093 ft 432 kts 345°
2026-05-04 10:31 -29.42807 148.69061 36097 ft 432 kts 345°
2026-05-04 10:32 -29.21811 148.67625 36092 ft 432 kts 345°
2026-05-04 10:33 -29.15816 148.67216 36052 ft 431 kts 345°
2026-05-04 10:33 -29.09857 148.66809 36088 ft 432 kts 345°
2026-05-04 10:34 -29.03854 148.66402 36092 ft 432 kts 345°
2026-05-04 10:34 -28.97852 148.66000 36092 ft 432 kts 345°
2026-05-04 10:35 -28.91847 148.65589 36089 ft 431 kts 345°
2026-05-04 10:35 -28.85847 148.65177 36091 ft 432 kts 345°
2026-05-04 10:36 -28.79834 148.64768 36094 ft 432 kts 345°
2026-05-04 10:36 -28.73859 148.64365 36094 ft 432 kts 345°
2026-05-04 10:37 -28.67856 148.63960 36094 ft 432 kts 345°
2026-05-04 10:37 -28.61843 148.63553 36091 ft 433 kts 345°
2026-05-04 10:39 -28.40804 148.62137 36093 ft 432 kts 345°
2026-05-04 10:40 -28.34834 148.61736 36096 ft 432 kts 346°
2026-05-04 10:40 -28.28828 148.61333 36096 ft 432 kts 345°
2026-05-04 10:41 -28.22835 148.60931 36095 ft 432 kts 345°
2026-05-04 10:41 -28.16833 148.60529 36093 ft 432 kts 345°
2026-05-04 10:42 -28.10838 148.60128 36095 ft 431 kts 346°
2026-05-04 10:42 -28.04889 148.59732 36097 ft 431 kts 346°
2026-05-04 10:43 -27.98899 148.59331 36094 ft 431 kts 346°
2026-05-04 10:44 -27.77954 148.57938 36681 ft 428 kts 346°
2026-05-04 10:45 -27.75015 148.57745 36890 ft 427 kts 346°
2026-05-04 10:45 -27.72047 148.57548 37097 ft 426 kts 346°
2026-05-04 10:45 -27.69086 148.57352 37280 ft 426 kts 346°
2026-05-04 10:45 -27.66130 148.57156 37459 ft 425 kts 346°
2026-05-04 10:46 -27.63174 148.56959 37647 ft 424 kts 346°
2026-05-04 10:46 -27.57262 148.56565 37819 ft 426 kts 346°
2026-05-04 10:46 -27.54303 148.56368 37974 ft 426 kts 346°
2026-05-04 10:47 -27.51346 148.56172 38090 ft 426 kts 346°
2026-05-04 10:47 -27.45384 148.55774 38098 ft 430 kts 346°
2026-05-04 10:49 -27.21451 148.54201 38099 ft 432 kts 346°
2026-05-04 10:50 -27.15487 148.53810 38101 ft 432 kts 346°
2026-05-04 10:52 -26.91391 148.52231 38099 ft 434 kts 346°
2026-05-04 10:52 -26.85357 148.51837 38101 ft 434 kts 346°
2026-05-04 10:54 -26.61255 148.50266 38097 ft 434 kts 346°
2026-05-04 10:56 -26.37082 148.48696 38100 ft 435 kts 346°
2026-05-04 10:57 -26.31060 148.48307 38099 ft 435 kts 346°
2026-05-04 10:57 -26.25011 148.47914 38103 ft 436 kts 346°
2026-05-04 10:58 -26.18955 148.47528 38100 ft 436 kts 347°
2026-05-04 10:58 -26.12907 148.47142 38099 ft 435 kts 347°
2026-05-04 10:59 -26.06864 148.46749 38102 ft 435 kts 347°
2026-05-04 10:59 -26.00720 148.46996 38105 ft 451 kts 357°
2026-05-04 11:00 -25.94484 148.48155 38101 ft 456 kts 359°
2026-05-04 11:02 -25.69469 148.53445 38108 ft 458 kts 359°
2026-05-04 11:05 -25.22422 148.63180 38103 ft 459 kts 360°
2026-05-04 11:06 -25.16178 148.64466 38105 ft 460 kts 360°
2026-05-04 11:06 -25.09891 148.65759 38103 ft 460 kts 360°
2026-05-04 11:10 -24.66846 148.74581 38094 ft 461 kts 360°
2026-05-04 11:12 -24.41536 148.79739 38094 ft 464 kts 360°
2026-05-04 11:12 -24.35177 148.81033 38091 ft 464 kts 360°
2026-05-04 11:13 -24.28867 148.82316 38090 ft 464 kts 360°
2026-05-04 11:13 -24.22510 148.83606 38093 ft 464 kts 360°
2026-05-04 11:14 -24.16158 148.84893 38092 ft 464 kts 360°
2026-05-04 11:16 -23.90719 148.90035 38094 ft 466 kts
2026-05-04 11:16 -23.84335 148.91323 38094 ft 466 kts
2026-05-04 11:17 -23.77957 148.92608 38092 ft 466 kts
2026-05-04 11:19 -23.52437 148.97737 38082 ft 467 kts
2026-05-04 11:19 -23.46043 148.99019 38066 ft 467 kts
2026-05-04 11:20 -23.39643 149.00300 38076 ft 468 kts
2026-05-04 11:20 -23.33225 149.01584 38074 ft 468 kts
2026-05-04 11:22 -23.07552 149.06707 38075 ft 471 kts
2026-05-04 11:23 -23.01102 149.07993 38075 ft 471 kts
2026-05-04 11:25 -22.78549 149.11714 38076 ft 458 kts 350°
2026-05-04 11:25 -22.72188 149.11512 38077 ft 456 kts 348°
2026-05-04 11:27 -22.43635 149.10100 38076 ft 457 kts 349°
2026-05-04 11:28 -22.37275 149.09800 38078 ft 457 kts 349°
2026-05-04 11:28 -22.30890 149.09497 38084 ft 459 kts 349°
2026-05-04 11:29 -22.24498 149.09196 38084 ft 460 kts 349°
2026-05-04 11:29 -22.18108 149.08898 38083 ft 460 kts 349°
2026-05-04 11:33 -21.73251 149.06791 38091 ft 463 kts 349°
2026-05-04 11:33 -21.66825 149.06437 38090 ft 461 kts 348°
2026-05-04 11:34 -21.60478 149.05893 38086 ft 459 kts 347°
2026-05-04 11:34 -21.54106 149.05314 38087 ft 460 kts 347°
2026-05-04 11:35 -21.47713 149.04766 38086 ft 460 kts 347°
2026-05-04 11:35 -21.41326 149.04234 38089 ft 460 kts 347°
2026-05-04 11:36 -21.34944 149.03714 38083 ft 459 kts 347°
2026-05-04 11:36 -21.28573 149.03195 38086 ft 459 kts 347°
2026-05-04 11:37 -21.22207 149.02675 38072 ft 459 kts 348°
2026-05-04 11:37 -21.15861 149.02156 38083 ft 460 kts 348°
2026-05-04 11:38 -21.09479 149.01635 38078 ft 460 kts 348°
2026-05-04 11:38 -21.03095 149.01114 38078 ft 460 kts 348°
2026-05-04 11:39 -20.96706 149.00592 38075 ft 460 kts 348°
2026-05-04 11:41 -20.74321 148.98769 38071 ft 462 kts 348°
2026-05-04 11:41 -20.67901 148.98247 38069 ft 462 kts 348°
2026-05-04 11:42 -20.61482 148.97725 38068 ft 463 kts 348°
2026-05-04 11:42 -20.55084 148.97205 38066 ft 463 kts 348°
2026-05-04 11:43 -20.48648 148.96684 38067 ft 463 kts 348°
2026-05-04 11:43 -20.42220 148.96164 38064 ft 463 kts 348°
2026-05-04 11:44 -20.35793 148.95644 38065 ft 463 kts 348°
2026-05-04 11:44 -20.29413 148.94870 38077 ft 459 kts 344°
2026-05-04 11:45 -20.23165 148.93704 38074 ft 458 kts 343°
2026-05-04 11:45 -20.16873 148.92532 38070 ft 459 kts 343°
2026-05-04 11:46 -20.10566 148.91430 38051 ft 459 kts 344°
2026-05-04 11:46 -20.04235 148.90357 38058 ft 460 kts 344°
2026-05-04 11:47 -19.97946 148.89305 38056 ft 460 kts 344°
2026-05-04 11:47 -19.91612 148.88243 38056 ft 460 kts 344°
2026-05-04 11:48 -19.85284 148.87180 38053 ft 460 kts 344°
2026-05-04 11:48 -19.78942 148.86113 38048 ft 460 kts 344°
2026-05-04 11:49 -19.72600 148.85047 38048 ft 462 kts 344°
2026-05-04 11:49 -19.66254 148.83981 38047 ft 462 kts 344°
2026-05-04 11:50 -19.59929 148.82920 38050 ft 462 kts 345°
2026-05-04 11:50 -19.53560 148.81853 38048 ft 462 kts 345°
2026-05-04 11:51 -19.47202 148.80788 38025 ft 462 kts 344°
2026-05-04 11:51 -19.40836 148.79722 38040 ft 463 kts 344°
2026-05-04 11:52 -19.34506 148.78664 38041 ft 464 kts 344°
2026-05-04 11:52 -19.28121 148.77597 38041 ft 464 kts 344°
2026-05-04 11:53 -19.21745 148.76533 38044 ft 464 kts 344°
2026-05-04 11:53 -19.15365 148.75468 38038 ft 464 kts 345°
2026-05-04 11:55 -18.90976 148.71407 38034 ft 463 kts 345°
2026-05-04 11:56 -18.84612 148.70349 38033 ft 463 kts 345°
2026-05-04 11:56 -18.78285 148.69298 38027 ft 463 kts 345°
2026-05-04 11:57 -18.71921 148.68242 38044 ft 463 kts 345°
2026-05-04 11:57 -18.65562 148.67187 38027 ft 463 kts 345°
2026-05-04 11:58 -18.59197 148.66133 38026 ft 463 kts 345°
2026-05-04 11:58 -18.52825 148.65078 38040 ft 463 kts 345°
2026-05-04 11:59 -18.46498 148.64031 38027 ft 463 kts 345°
2026-05-04 11:59 -18.40135 148.62979 38028 ft 463 kts 345°
2026-05-04 12:00 -18.33770 148.61927 38035 ft 463 kts 345°
2026-05-04 12:00 -18.27402 148.60878 38025 ft 463 kts 345°
2026-05-04 12:01 -18.21040 148.59827 38024 ft 463 kts 345°
2026-05-04 12:02 -17.98755 148.56157 38023 ft 463 kts 345°
2026-05-04 12:03 -17.92368 148.55106 38029 ft 464 kts 346°
2026-05-04 12:03 -17.86013 148.54062 38018 ft 464 kts 346°
2026-05-04 12:04 -17.79619 148.53013 38027 ft 464 kts 346°
2026-05-04 12:04 -17.73228 148.51965 38023 ft 464 kts 346°
2026-05-04 12:05 -17.66838 148.50917 38026 ft 464 kts 346°
2026-05-04 12:05 -17.60483 148.49875 38022 ft 465 kts 346°
2026-05-04 12:06 -17.54088 148.48829 38020 ft 465 kts 346°
2026-05-04 12:06 -17.47689 148.47782 38017 ft 465 kts 346°
2026-05-04 12:07 -17.41294 148.46737 38009 ft 464 kts 346°
2026-05-04 12:07 -17.34914 148.45695 38001 ft 464 kts 346°
2026-05-04 12:08 -17.28511 148.44649 38013 ft 465 kts 346°
2026-05-04 12:08 -17.22151 148.43612 38014 ft 465 kts 346°
2026-05-04 12:09 -17.15747 148.42568 38013 ft 465 kts 346°
2026-05-04 12:09 -17.09348 148.41526 38012 ft 465 kts 346°
2026-05-04 12:10 -17.02942 148.40483 38005 ft 465 kts 346°
2026-05-04 12:10 -16.96536 148.39440 38010 ft 467 kts 346°
2026-05-04 12:11 -16.90113 148.38396 38008 ft 467 kts 346°
2026-05-04 12:11 -16.83736 148.37360 38007 ft 467 kts 346°
2026-05-04 12:12 -16.77310 148.36317 38009 ft 467 kts 346°
2026-05-04 12:12 -16.70885 148.35275 38005 ft 467 kts 346°
2026-05-04 12:14 -16.45195 148.31114 38003 ft 468 kts 346°
2026-05-04 12:15 -16.38771 148.30075 38003 ft 467 kts 347°
2026-05-04 12:15 -16.32354 148.29039 38004 ft 466 kts 347°
2026-05-04 12:16 -16.25932 148.28002 38004 ft 466 kts 347°
2026-05-04 12:16 -16.19519 148.26967 38004 ft 466 kts 347°
2026-05-04 12:17 -16.13133 148.25937 37998 ft 466 kts 347°
2026-05-04 12:17 -16.06707 148.24901 38003 ft 467 kts 347°
2026-05-04 12:18 -16.00302 148.23870 38000 ft 468 kts 347°
2026-05-04 12:18 -15.93859 148.22833 37997 ft 468 kts 347°
2026-05-04 12:19 -15.87424 148.21799 37998 ft 468 kts 347°
2026-05-04 12:19 -15.80987 148.20764 37996 ft 468 kts 347°
2026-05-04 12:20 -15.74566 148.19731 37996 ft 471 kts 347°
2026-05-04 12:20 -15.68079 148.18691 38000 ft 471 kts 347°
2026-05-04 12:21 -15.61593 148.17655 37995 ft 471 kts 347°
2026-05-04 12:21 -15.55114 148.16616 37995 ft 471 kts 347°
2026-05-04 12:22 -15.48640 148.15578 37992 ft 471 kts 347°
2026-05-04 12:22 -15.42196 148.14547 37991 ft 471 kts 347°
2026-05-04 12:23 -15.35716 148.13511 37993 ft 471 kts 347°
2026-05-04 12:23 -15.29224 148.12474 37988 ft 471 kts 347°
2026-05-04 12:24 -15.22755 148.11441 37991 ft 471 kts 347°
2026-05-04 12:24 -15.16274 148.10407 37993 ft 472 kts 347°
2026-05-04 12:25 -15.09771 148.09370 37990 ft 473 kts 347°
2026-05-04 12:25 -15.03261 148.08333 37988 ft 473 kts 347°
2026-05-04 12:26 -14.96778 148.07301 37986 ft 473 kts 347°
2026-05-04 12:26 -14.90263 148.06264 37983 ft 473 kts 347°
2026-05-04 12:27 -14.83743 148.05227 37996 ft 474 kts 347°
2026-05-04 12:27 -14.77210 148.04188 37976 ft 475 kts 347°
2026-05-04 12:28 -14.70669 148.03149 37990 ft 475 kts 347°
2026-05-04 12:28 -14.64184 148.02119 37976 ft 475 kts 347°
2026-05-04 12:29 -14.57656 148.01084 37984 ft 475 kts 347°
2026-05-04 12:29 -14.51118 148.00047 37985 ft 474 kts 347°
2026-05-04 12:30 -14.44587 147.99012 37983 ft 474 kts 347°
2026-05-04 12:30 -14.38061 147.97978 37983 ft 474 kts 347°
2026-05-04 12:31 -14.31539 147.96946 37983 ft 474 kts 347°
2026-05-04 12:31 -14.25055 147.95919 37977 ft 474 kts 348°
2026-05-04 12:32 -14.15254 147.94370 37981 ft 475 kts 348°
2026-05-04 12:33 -14.08709 147.93336 37977 ft 475 kts 348°
2026-05-04 12:33 -14.02177 147.92305 37977 ft 475 kts 348°
2026-05-04 12:34 -13.95650 147.91276 37974 ft 474 kts 348°
2026-05-04 12:34 -13.89167 147.90253 37976 ft 474 kts 348°
2026-05-04 12:35 -13.82636 147.89223 37972 ft 475 kts 348°
2026-05-04 12:35 -13.76105 147.88194 37973 ft 475 kts 348°
2026-05-04 12:36 -13.69566 147.87165 37973 ft 475 kts 348°
2026-05-04 12:36 -13.63027 147.86136 37966 ft 475 kts 348°
2026-05-04 12:37 -13.56467 147.85104 37974 ft 478 kts 348°
2026-05-04 12:37 -13.49889 147.84070 37975 ft 478 kts 348°
2026-05-04 12:38 -13.43350 147.83044 37974 ft 478 kts 348°
2026-05-04 12:38 -13.36758 147.82009 37973 ft 478 kts 348°
2026-05-04 12:39 -13.30162 147.80973 37970 ft 479 kts 348°
2026-05-04 12:39 -13.23602 147.79944 37972 ft 480 kts 348°
2026-05-04 12:40 -13.17002 147.78910 37972 ft 480 kts 348°
2026-05-04 12:40 -13.10398 147.77876 37970 ft 479 kts 348°
2026-05-04 12:41 -13.03794 147.76843 37966 ft 479 kts 348°
2026-05-04 12:41 -12.97237 147.75816 37963 ft 479 kts 349°
2026-05-04 12:42 -12.90641 147.74785 37965 ft 479 kts 349°
2026-05-04 12:42 -12.84042 147.73754 37965 ft 479 kts 349°
2026-05-04 12:43 -12.77442 147.72723 37964 ft 479 kts 349°
2026-05-04 12:43 -12.71953 147.71865 37963 ft 479 kts 349°
2026-05-04 12:44 -12.65347 147.70833 37963 ft 480 kts 349°
2026-05-04 12:44 -12.58741 147.69802 37963 ft 481 kts 349°
2026-05-04 12:45 -12.52149 147.68776 37963 ft 481 kts 349°
2026-05-04 12:45 -12.45535 147.67745 37963 ft 481 kts 349°
2026-05-04 12:46 -12.38915 147.66715 37963 ft 481 kts 349°
2026-05-04 12:46 -12.32300 147.65685 37960 ft 481 kts 349°
2026-05-04 12:47 -12.25677 147.64654 37962 ft 480 kts 349°
2026-05-04 12:47 -12.19122 147.63635 37959 ft 479 kts 349°
2026-05-04 12:48 -12.12519 147.62609 37955 ft 479 kts 349°
2026-05-04 12:48 -12.05925 147.61584 37954 ft 479 kts 350°
2026-05-04 12:49 -11.99337 147.60562 37960 ft 478 kts 350°
2026-05-04 12:49 -11.92762 147.59544 37955 ft 478 kts 350°
2026-05-04 12:50 -11.86192 147.58524 37955 ft 478 kts 350°
2026-05-04 12:50 -11.79617 147.57504 37955 ft 478 kts 350°
2026-05-04 12:51 -11.73036 147.56485 37954 ft 478 kts 350°
2026-05-04 12:51 -11.66510 147.55475 37950 ft 477 kts 350°
2026-05-04 12:52 -11.59936 147.54457 37952 ft 477 kts 350°
2026-05-04 12:52 -11.53368 147.53442 37947 ft 477 kts 350°
2026-05-04 12:53 -11.46797 147.52426 37947 ft 477 kts 350°
2026-05-04 12:53 -11.40227 147.51411 37946 ft 477 kts 350°
2026-05-04 12:54 -11.33660 147.50397 37946 ft 477 kts 350°
2026-05-04 12:54 -11.27106 147.49385 37938 ft 477 kts 350°
2026-05-04 12:55 -11.20547 147.48373 37938 ft 476 kts 350°
2026-05-04 12:55 -11.14034 147.47368 37936 ft 476 kts 350°
2026-05-04 12:56 -11.07482 147.46358 37938 ft 475 kts 351°
2026-05-04 12:56 -11.00942 147.45351 37935 ft 475 kts 351°
2026-05-04 12:57 -10.94415 147.44346 37930 ft 474 kts 351°
2026-05-04 12:57 -10.87857 147.43336 37932 ft 475 kts 351°
2026-05-04 12:58 -10.81322 147.42331 37932 ft 475 kts 351°
2026-05-04 12:58 -10.74818 147.41330 37933 ft 475 kts 351°
2026-05-04 12:59 -10.68286 147.40326 37929 ft 475 kts 351°
2026-05-04 12:59 -10.61747 147.39321 37929 ft 475 kts 351°
2026-05-04 13:00 -10.55215 147.38318 37927 ft 475 kts 351°
2026-05-04 13:00 -10.48723 147.37322 37927 ft 474 kts 352°
2026-05-04 13:01 -10.42199 147.36319 37928 ft 474 kts 352°
2026-05-04 13:01 -10.35675 147.35318 37926 ft 473 kts 352°
2026-05-04 13:02 -10.29154 147.34319 37923 ft 474 kts 352°
2026-05-04 13:02 -10.22634 147.33320 37922 ft 474 kts 352°
2026-05-04 13:03 -10.16163 147.32329 37923 ft 474 kts 351°
2026-05-04 13:03 -10.09634 147.31328 37924 ft 475 kts 352°
2026-05-04 13:04 -10.03087 147.30325 37924 ft 475 kts 352°
2026-05-04 13:04 -9.96548 147.29326 37923 ft 475 kts 352°
2026-05-04 13:05 -9.90056 147.28332 37923 ft 475 kts 351°
2026-05-04 13:05 -9.83513 147.27333 37922 ft 477 kts 351°
2026-05-04 13:06 -9.76925 147.26326 37918 ft 479 kts 351°
2026-05-04 13:06 -9.70320 147.25316 37919 ft 480 kts 351°
2026-05-04 13:07 -9.63720 147.24308 37923 ft 480 kts 351°
2026-05-04 13:07 -9.57150 147.23305 37922 ft 480 kts 351°
2026-05-04 13:08 -9.50542 147.22297 37923 ft 479 kts 351°
2026-05-04 13:08 -9.43955 147.21292 37921 ft 478 kts 351°
2026-05-04 13:09 -9.37394 147.20165 37925 ft 478 kts 349°
2026-05-04 13:09 -9.30841 147.18968 37925 ft 479 kts 349°
2026-05-04 13:10 -9.24279 147.17786 37928 ft 479 kts 350°
2026-05-04 13:10 -9.17754 147.16629 37928 ft 479 kts 350°
2026-05-04 13:11 -9.11186 147.15471 37931 ft 479 kts 350°
2026-05-04 13:11 -9.04616 147.14314 37931 ft 478 kts 350°
2026-05-04 13:12 -8.98045 147.13155 37943 ft 478 kts 350°
2026-05-04 13:12 -8.91518 147.12005 37944 ft 478 kts 350°
2026-05-04 13:13 -8.84948 147.10847 37953 ft 480 kts 349°
2026-05-04 13:13 -8.78347 147.09683 37961 ft 483 kts 350°
2026-05-04 13:14 -8.71718 147.08517 37984 ft 483 kts 350°
2026-05-04 13:14 -8.65126 147.07358 38015 ft 483 kts 350°
2026-05-04 13:15 -8.58485 147.06190 38013 ft 483 kts 349°
2026-05-04 13:15 -8.51846 147.05022 38017 ft 484 kts 349°
2026-05-04 13:16 -8.45231 147.03859 38018 ft 485 kts 349°
2026-05-04 13:16 -8.38587 147.02692 38033 ft 485 kts 349°
2026-05-04 13:17 -8.31940 147.01524 38029 ft 485 kts 349°
2026-05-04 13:17 -8.25285 147.00355 38047 ft 485 kts 350°
2026-05-04 13:18 -8.18623 146.99186 38049 ft 486 kts 350°
2026-05-04 13:18 -8.11947 146.98015 38055 ft 486 kts 350°
2026-05-04 13:19 -8.05318 146.96852 38054 ft 486 kts 350°
2026-05-04 13:19 -7.98645 146.95681 38064 ft 486 kts 350°
2026-05-04 13:20 -7.91980 146.94513 38048 ft 485 kts 350°
2026-05-04 13:20 -7.85336 146.93349 38050 ft 484 kts 350°
2026-05-04 13:21 -7.78690 146.92185 38049 ft 484 kts 350°
2026-05-04 13:21 -7.72044 146.91020 38049 ft 484 kts 350°
2026-05-04 13:22 -7.65457 146.89867 38049 ft 484 kts 350°
2026-05-04 13:22 -7.58823 146.88706 38045 ft 484 kts 350°
2026-05-04 13:23 -7.52176 146.87542 38043 ft 484 kts 350°
2026-05-04 13:23 -7.45534 146.86380 38034 ft 484 kts 350°
2026-05-04 13:24 -7.38874 146.85216 38037 ft 484 kts 350°
2026-05-04 13:24 -7.32233 146.84055 38033 ft 484 kts 350°
2026-05-04 13:25 -7.22223 146.82306 38024 ft 488 kts 350°
2026-05-04 13:25 -7.15567 146.81143 38025 ft 488 kts 350°
2026-05-04 13:26 -7.08871 146.79974 38009 ft 489 kts 350°
2026-05-04 13:26 -7.02172 146.78804 38003 ft 488 kts 350°
2026-05-04 13:27 -6.95459 146.77633 37986 ft 488 kts 350°
2026-05-04 13:27 -6.88819 146.76474 37989 ft 487 kts 350°
2026-05-04 13:28 -6.82145 146.75310 37984 ft 486 kts 350°
2026-05-04 13:28 -6.75472 146.74146 37980 ft 486 kts 350°
2026-05-04 13:29 -6.68798 146.72983 37987 ft 486 kts 350°
2026-05-04 13:29 -6.62124 146.71820 37984 ft 487 kts 350°
2026-05-04 13:30 -6.56575 146.70854 38003 ft 487 kts 350°
2026-05-04 13:30 -6.48756 146.69974 38004 ft 487 kts 356°
2026-05-04 13:31 -6.41994 146.69514 38014 ft 487 kts 356°
2026-05-04 13:31 -6.36372 146.69097 38018 ft 487 kts 355°
2026-05-04 13:32 -6.29609 146.68534 38040 ft 488 kts 355°
2026-05-04 13:32 -6.22843 146.67943 38040 ft 488 kts 355°
2026-05-04 13:33 -6.16072 146.67350 38040 ft 488 kts 355°
2026-05-04 13:33 -6.09296 146.66758 38047 ft 488 kts 355°
2026-05-04 13:34 -6.02529 146.66169 38042 ft 488 kts 355°
2026-05-04 13:34 -5.95762 146.65581 38024 ft 488 kts 355°
2026-05-04 13:35 -5.85608 146.64699 38025 ft 488 kts 355°
2026-05-04 13:36 -5.78837 146.64111 37992 ft 488 kts 355°
2026-05-04 13:36 -5.72065 146.63523 37956 ft 488 kts 355°
2026-05-04 13:37 -5.65349 146.62939 37958 ft 487 kts 355°
2026-05-04 13:37 -5.58594 146.62353 37940 ft 486 kts 355°
2026-05-04 13:38 -5.51857 146.61768 37937 ft 486 kts 355°
2026-05-04 13:38 -5.45111 146.61182 37913 ft 486 kts 355°
2026-05-04 13:39 -5.38365 146.60597 37914 ft 486 kts 355°
2026-05-04 13:39 -5.31619 146.60012 37912 ft 486 kts 355°
2026-05-04 13:40 -5.24928 146.59432 37912 ft 485 kts 355°
2026-05-04 13:40 -5.18194 146.58848 37912 ft 485 kts 355°
2026-05-04 13:41 -5.11463 146.58264 37912 ft 486 kts 355°
2026-05-04 13:41 -5.04714 146.57679 37912 ft 486 kts 355°
2026-05-04 13:42 -4.94585 146.56802 37912 ft 487 kts 355°
2026-05-04 13:42 -4.87826 146.56216 37912 ft 487 kts 355°
2026-05-04 13:43 -4.81118 146.55635 37911 ft 487 kts 355°
2026-05-04 13:43 -4.74359 146.55050 37912 ft 487 kts 355°
2026-05-04 13:44 -4.67543 146.54460 37911 ft 489 kts 355°
2026-05-04 13:44 -4.60805 146.53877 37912 ft 489 kts 355°
2026-05-04 13:45 -4.54014 146.53289 37913 ft 489 kts 355°
2026-05-04 13:45 -4.47260 146.52705 37911 ft 489 kts 355°
2026-05-04 13:46 -4.40477 146.52119 37912 ft 490 kts 355°
2026-05-04 13:46 -4.33657 146.51528 37910 ft 492 kts 355°
2026-05-04 13:47 -4.26842 146.50939 37911 ft 492 kts 355°
2026-05-04 13:47 -4.20017 146.50349 37911 ft 492 kts 355°
2026-05-04 13:48 -4.13232 146.49762 37911 ft 492 kts 355°
2026-05-04 13:48 -4.06399 146.49172 37908 ft 492 kts 355°
2026-05-04 13:49 -3.99578 146.48582 37910 ft 492 kts 355°
2026-05-04 13:49 -3.92747 146.47992 37906 ft 492 kts 355°
2026-05-04 13:50 -3.85920 146.47402 37909 ft 492 kts 355°
2026-05-04 13:50 -3.79137 146.46817 37908 ft 492 kts 355°
2026-05-04 13:51 -3.72314 146.46227 37908 ft 492 kts 355°
2026-05-04 13:51 -3.65488 146.45638 37909 ft 492 kts 355°